Back to catalog

COSMOS 1249 COOLANT

AliveLEO
NORAD 26911·DEBRIS·🇷🇺 Russia

Launched Mar 5, 1981 from Baikonur Cosmodrome

Loading…

Next Passes (next 24 hours)

TLE

FreshSource: Space-Track

Epoch: Sep 14, 2026, 06:13 UTC

1 26911U 81021Q   26257.25951322  .00000040  00000-0  10069-3 0  9995
2 26911  64.9611  74.5678 0060420 229.5427 306.4012 13.91915103670099

Track COSMOS 1249 COOLANT in real time with AllMySat

Download on the App Store